Location: Godiavel Galaoual
(15.2485°N, 12.6604°W)
Time: 04:25:32
(UTC+00:00)

BUGSAT 1 - Pass Details

Date: 02 August 2021
Orbit: 558 x 601 km, 98.1° (Epoch: 26 September)

Event Time Altitude Azimuth Distance (km) Brightness Sun altitude
Rises 04:56:13 0° 18° (NNE) 2,823 ? -22.5°
Reaches altitude 10° 04:58:25 10° 23° (NNE) 1,926 ? -22.0°
Maximum altitude 05:02:31 55° 101° (ESE) 723 ? -21.1°
Enters shadow 05:05:25 19° 174° (S) 1,458 ? -20.5°
